Location: ????????
(48.4751°N, 37.6926°E)
Time: 03:04:01
(UTC+00:00)

CZ-4C R/B - Pass Details

Date: 20 January 2021
Orbit: 617 x 1384 km, 63.4° (Epoch: 24 February)

Event Time Altitude Azimuth Distance (km) Brightness Sun altitude
Rises 17:13:16 0° 290° (WNW) 3,342 6.4 -30.1°
Reaches altitude 10° 17:16:10 10° 306° (NW) 2,535 5.3 -30.6°
Maximum altitude 17:20:41 22° 356° (N) 2,014 4.2 -31.3°
Enters shadow 17:21:18 21° 4° (N) 2,051 4.1 -31.4°
